Miscellaneous Local Product
Issued by NWS Hastings, NE

Home | Current Version | Previous Version | Text Only | Print | Product List | Glossary On
Versions: 1 2 3 4 5 6 7 8 9 10 11 12 13 14 15 16 17 18 19 20 21 22 23 24 25 26 27 28 29 30 31 32 33 34 35 36 37 38 39 40 41 42 43 44 45 46 47 48 49 50
000
AXUS43 KGID 191410
MISGRI

GID CWA HOURLY WEATHER ROUNDUP
NATIONAL WEATHER SERVICE HASTINGS NE
900 AM CDT FRI SEP 19 2014

NOTE: "FAIR" INDICATES FEW OR NO CLOUDS BELOW 12,000 FEET WITH NO
SIGNIFICANT WEATHER AND/OR OBSTRUCTIONS TO VISIBILITY.

...SOUTH CENTRAL NEBRASKA...

CITY           SKY/WX    TMP DP  RH WIND       PRES   REMARKS
GRAND ISLAND   SUNNY     67  62  84 S15       29.89F
HASTINGS       SUNNY     65  60  84 S10       29.91S
KEARNEY        SUNNY     64  61  88 S15       29.90S
ORD            SUNNY     65  61  87 S13       29.83S
YORK           CLOUDY    66  64  94 S15       29.91F
AURORA         MOSUNNY   66  64  93 S14G20    29.90F
LEXINGTON      SUNNY     66  63  91 S9        29.88S
HOLDREGE       SUNNY     64  60  88 S12G17    29.91S
HEBRON         PTSUNNY   67  62  86 S10       29.95R

...NEBRASKA PANHANDLE...

CITY           SKY/WX    TMP DP  RH WIND       PRES   REMARKS
CHADRON        MOSUNNY   61  54  77 SW6       29.86R
ALLIANCE       SUNNY     57  53  86 W10       29.89R
SCOTTSBLUFF    MOSUNNY   61  53  75 W13       29.94R
SIDNEY         MOSUNNY   67  44  43 W14       29.95R

...WESTERN AND NORTH CENTRAL NEBRASKA...

CITY           SKY/WX    TMP DP  RH WIND       PRES   REMARKS
VALENTINE      SUNNY     63  60  90 SW10      29.78S
AINSWORTH      SUNNY     64  61  90 SW13      29.80S
ONEILL         SUNNY     68  64  88 SW13      29.81R
BROKEN BOW     SUNNY     65  61  87 S13       29.85S
IMPERIAL       SUNNY     62  56  80 SW10      29.90R
NORTH PLATTE   SUNNY     63  59  87 S3        29.86F
MCCOOK         SUNNY     61  60  97 CALM      29.91R

...EASTERN NEBRASKA...

CITY           SKY/WX    TMP DP  RH WIND       PRES   REMARKS
NORFOLK        CLOUDY    67  63  87 S15       29.85S
SO SIOUX CITY  CLOUDY    66  62  87 S12G21    29.86F
TEKAMAH        PTSUNNY   67  62  84 S15G25    29.89F
ALBION         PTSUNNY   64  61  90 S12       29.86S
OMAHA EPPLEY   CLOUDY    64  60  87 S18       29.93S FOG
OFFUTT AFB     CLOUDY    64  64 100 SE10      29.94S
MILLARD        CLOUDY    65  62  89 S12       29.93S FOG
LINCOLN        CLOUDY    67  63  87 S16       29.93F
NEBRASKA CITY  CLOUDY    64  63  97 S12G17    29.96F FOG
BEATRICE       MOSUNNY   66  63  90 S14       29.95S
FALLS CITY     CLOUDY    64  62  93 SE12      29.99R

...NORTHERN KANSAS...

CITY           SKY/WX    TMP DP  RH WIND       PRES   REMARKS
GOODLAND       SUNNY     65  59  81 SW10      29.96R
HILL CITY      SUNNY     68  62  81 SW9       29.94R
NORTON         SUNNY     68  59  73 S7        29.92R
PHILLIPSBURG   SUNNY     66  63  88 SE7       29.94R
SMITH CENTER   SUNNY     66  61  82 S12       29.94S
BELOIT         SUNNY     66  64  94 S9        29.94S
HAYS           SUNNY     66  57  72 S12       29.97R
RUSSELL        SUNNY     69  62  78 S13       29.95R
CONCORDIA      SUNNY     67  65  93 S13       29.95F
SALINA         SUNNY     69  64  84 S7        29.98R
TOPEKA         CLOUDY    65  64  97 SE7       30.01S FOG



USA.gov is the U.S. government's official web portal to all federal, state and local government web resources and services.